Вернуться в каталог

SL-8 R/B

АктивенPO
NORAD 17526·ROCKET BODY·🇷🇺 Russia

Запущен Feb 18, 1987 с Plesetsk Cosmodrome

Loading…

Ближайшие Пролёты (ближайшие 24 часа)

TLE

СвежийSource: Space-Track

Эпоха: Sep 14, 2026, 19:44 UTC

1 17526U 87017B   26257.82257977 -.00000005  00000-0 -19750-4 0  9996
2 17526  82.9007  35.9519 0039175 233.9686 125.7838 13.77236410970658

Отслеживайте SL-8 R/B в реальном времени с AllMySat

Download on the App Store